Regional Weather Roundup
Issued by NWS

Home | Current Version | Previous Version | Text Only | Print | Product List | Glossary On
Versions: 1 2 3 4 5 6 7 8 9 10 11 12 13 14 15 16 17 18 19 20 21 22 23 24 25 26 27 28 29 30 31 32 33 34 35 36 37 38 39 40 41 42 43 44 45 46 47 48 49 50
000
ASUS43 KTOP 111359
RWRKS

WEATHER ROUNDUP FOR KANSAS
NATIONAL WEATHER SERVICE GOODLAND KS
800 AM CST THU FEB 11 2016

NOTE:  "FAIR" INDICATES FEW OR NO CLOUDS BELOW 12,000 FEET WITH NO
SIGNIFICANT WEATHER AND/OR OBSTRUCTIONS TO VISIBILITY.

KSZ001>006-013>018-027>032-041>047-111500-
NORTHWEST KANSAS

CITY           SKY/WX    TMP DP  RH WIND       PRES   REMARKS
GOODLAND       CLOUDY    29  22  75 W7        30.14F
HAYS           CLOUDY    28  18  64 NE8       30.22F
HILL CITY      CLOUDY    26  25  96 CALM      30.22S FOG
RUSSELL        CLEAR     26  24  92 N10       30.23R WCI  16
$$

KSZ061>065-074>080-084>089-111500-
SOUTHWEST KANSAS

CITY           SKY/WX    TMP DP  RH WIND       PRES   REMARKS
DODGE CITY     CLOUDY    27  24  89 N6        30.19R
ELKHART          N/A     34  20  57 NW5         N/A
GARDEN CITY    CLOUDY    25  23  92 NW9       30.20R
GREAT BEND     CLOUDY    25  18  74 N8        30.24R
LIBERAL        CLOUDY    25  18  74 NW7       30.20R
$$

KSZ066>073-081>083-090>101-111500-
SOUTHEAST KANSAS

CITY           SKY/WX    TMP DP  RH WIND       PRES   REMARKS
CHANUTE        CLEAR     25  21  85 N9        30.23R
COFFEYVILLE    CLEAR     27  22  81 N9        30.23R
HUTCHINSON     MOCLDY    26  22  84 NE7       30.23R
MEDICINE LODGE   N/A     30  27  88 N7        30.21R
NEWTON         CLOUDY    25  18  74 NE12      30.23R WCI  14
PARSONS        CLEAR     26  22  84 N8        30.23R
WICHITA INTL   PTCLDY    29  23  78 N14       30.21R WCI  18
WICHITA JABRA  CLEAR     25  22  88 N10       30.22R WCI  15
WINFIELD       CLEAR     29  23  78 N8        30.22R
$$

KSZ007>012-019>026-033>040-048>060-102>105-111500-
NORTHEAST KANSAS

CITY           SKY/WX    TMP DP  RH WIND       PRES   REMARKS
CONCORDIA      CLOUDY    23  20  88 E8        30.24R FOG
EMPORIA        CLOUDY    23  20  88 N7        30.25R
LAWRENCE       CLOUDY    22  18  85 NE7       30.29R
MANHATTAN      CLOUDY    25  22  88 NE10      30.28S WCI  15
OLATHE IND     CLEAR     23  18  81 NE10      30.27R WCI  12
OLATHE EXE     CLEAR     22  17  81 NE12      30.26R WCI  10
SALINA         CLOUDY    28  23  81 NE9       30.26R
TOPEKA BILLARD CLOUDY    23  18  81 N7        30.29R
TOPEKA FORBES  CLEAR     24  19  81 N7        30.27R
$$



USA.gov is the U.S. government's official web portal to all federal, state and local government web resources and services.